Time,TemperatureF,DewpointF,PressureIn,WindDirection,WindDirectionDegrees,WindSpeedMPH,WindSpeedGustMPH,Humidity,HourlyPrecipIn,Conditions,Clouds,dailyrainin,SoftwareType,DateUTC
2013-02-21 00:06:00,64.6,64.0,29.73,NW,305,2.0,16.0,98,0.00,,,0.00,weatherlink.com 1.10,2013-02-21 06:06:00,
2013-02-21 00:21:00,65.0,64.0,29.71,SSE,160,4.0,15.0,97,0.00,,,0.00,weatherlink.com 1.10,2013-02-21 06:21:00,
2013-02-21 00:36:00,65.3,65.0,29.71,ESE,122,5.0,18.0,97,0.00,,,0.00,weatherlink.com 1.10,2013-02-21 06:36:00,
2013-02-21 00:51:00,65.7,65.0,29.70,South,171,4.0,16.0,97,0.00,,,0.00,weatherlink.com 1.10,2013-02-21 06:51:00,
2013-02-21 01:06:00,65.8,65.0,29.70,ESE,116,16.0,16.0,97,0.00,,,0.00,weatherlink.com 1.10,2013-02-21 07:06:00,
2013-02-21 01:21:00,66.1,65.0,29.70,SE,128,9.0,16.0,96,0.00,,,0.00,weatherlink.com 1.10,2013-02-21 07:21:00,
2013-02-21 01:36:00,66.4,65.0,29.70,SE,140,7.0,12.0,96,0.00,,,0.00,weatherlink.com 1.10,2013-02-21 07:36:00,
2013-02-21 01:51:00,66.5,65.0,29.69,SSE,159,11.0,12.0,96,0.00,,,0.00,weatherlink.com 1.10,2013-02-21 07:51:00,
2013-02-21 02:07:00,66.7,65.0,29.69,SSE,157,0.0,13.0,95,0.00,,,0.00,weatherlink.com 1.10,2013-02-21 08:07:00,
2013-02-21 02:22:00,66.7,65.0,29.69,SE,135,0.0,11.0,95,0.00,,,0.00,weatherlink.com 1.10,2013-02-21 08:22:00,
2013-02-21 02:37:00,66.8,65.0,29.68,SE,136,2.0,12.0,95,0.00,,,0.00,weatherlink.com 1.10,2013-02-21 08:37:00,
2013-02-21 02:52:00,66.9,66.0,29.68,SE,132,1.0,8.0,95,0.00,,,0.00,weatherlink.com 1.10,2013-02-21 08:52:00,
2013-02-21 03:07:00,67.1,66.0,29.67,SE,130,9.0,13.0,95,0.00,,,0.00,weatherlink.com 1.10,2013-02-21 09:07:00,
2013-02-21 03:22:00,67.3,66.0,29.66,South,173,2.0,14.0,95,0.01,,,0.01,weatherlink.com 1.10,2013-02-21 09:22:00,
2013-02-21 03:37:00,67.3,66.0,29.65,SE,144,5.0,10.0,96,0.01,,,0.01,weatherlink.com 1.10,2013-02-21 09:37:00,
2013-02-21 03:52:00,67.6,67.0,29.65,WSW,248,2.0,11.0,96,0.01,,,0.01,weatherlink.com 1.10,2013-02-21 09:52:00,
2013-02-21 04:07:00,67.9,67.0,29.65,WSW,254,2.0,11.0,96,0.02,,,0.02,weatherlink.com 1.10,2013-02-21 10:07:00,
2013-02-21 04:22:00,68.2,67.0,29.64,South,185,4.0,14.0,96,0.01,,,0.02,weatherlink.com 1.10,2013-02-21 10:22:00,
2013-02-21 04:37:00,68.4,67.0,29.64,North,10,1.0,18.0,96,0.01,,,0.02,weatherlink.com 1.10,2013-02-21 10:37:00,
2013-02-21 04:52:00,68.7,68.0,29.63,SE,138,7.0,20.0,96,0.01,,,0.02,weatherlink.com 1.10,2013-02-21 10:52:00,
2013-02-21 05:07:00,68.8,68.0,29.64,East,101,2.0,19.0,96,0.00,,,0.02,weatherlink.com 1.10,2013-02-21 11:07:00,
2013-02-21 05:22:00,68.6,68.0,29.64,East,96,1.0,24.0,96,0.01,,,0.03,weatherlink.com 1.10,2013-02-21 11:22:00,
2013-02-21 05:37:00,68.6,68.0,29.64,ENE,73,1.0,16.0,96,0.02,,,0.04,weatherlink.com 1.10,2013-02-21 11:37:00,
2013-02-21 05:52:00,68.9,68.0,29.64,SE,126,11.0,14.0,96,0.02,,,0.04,weatherlink.com 1.10,2013-02-21 11:52:00,
2013-02-21 06:07:00,69.0,68.0,29.65,WNW,303,4.0,14.0,96,0.02,,,0.04,weatherlink.com 1.10,2013-02-21 12:07:00,
2013-02-21 06:22:00,69.0,68.0,29.65,NNE,32,5.0,21.0,96,0.01,,,0.04,weatherlink.com 1.10,2013-02-21 12:22:00,
2013-02-21 06:37:00,69.1,68.0,29.66,SSE,154,2.0,19.0,96,0.00,,,0.04,weatherlink.com 1.10,2013-02-21 12:37:00,
2013-02-21 06:52:00,69.0,68.0,29.67,WNW,303,2.0,16.0,96,0.00,,,0.04,weatherlink.com 1.10,2013-02-21 12:52:00,
2013-02-21 07:07:00,69.2,68.0,29.68,WSW,245,3.0,10.0,96,0.01,,,0.05,weatherlink.com 1.10,2013-02-21 13:07:00,
2013-02-21 07:22:00,69.2,68.0,29.68,SE,133,2.0,14.0,96,0.02,,,0.06,weatherlink.com 1.10,2013-02-21 13:22:00,
2013-02-21 07:37:00,69.3,68.0,29.68,SSE,155,2.0,13.0,96,0.02,,,0.06,weatherlink.com 1.10,2013-02-21 13:37:00,
2013-02-21 07:52:00,69.4,68.0,29.67,ESE,111,12.0,20.0,96,0.03,,,0.07,weatherlink.com 1.10,2013-02-21 13:52:00,
2013-02-21 08:07:00,69.5,68.0,29.67,ESE,112,7.0,13.0,96,0.03,,,0.08,weatherlink.com 1.10,2013-02-21 14:07:00,
2013-02-21 08:22:00,69.7,69.0,29.66,SSE,161,2.0,15.0,96,0.02,,,0.08,weatherlink.com 1.10,2013-02-21 14:22:00,
2013-02-21 08:37:00,69.9,69.0,29.66,NNW,331,4.0,20.0,96,0.01,,,0.08,weatherlink.com 1.10,2013-02-21 14:37:00,
2013-02-21 08:52:00,70.3,69.0,29.67,SW,215,12.0,19.0,96,0.00,,,0.08,weatherlink.com 1.10,2013-02-21 14:52:00,
2013-02-21 09:07:00,70.8,69.0,29.68,SSE,150,2.0,18.0,94,0.00,,,0.08,weatherlink.com 1.10,2013-02-21 15:07:00,
2013-02-21 09:22:00,71.5,70.0,29.68,WSW,242,4.0,16.0,94,0.00,,,0.08,weatherlink.com 1.10,2013-02-21 15:22:00,
2013-02-21 09:37:00,72.0,70.0,29.67,ESE,123,8.0,18.0,93,0.00,,,0.08,weatherlink.com 1.10,2013-02-21 15:37:00,
2013-02-21 09:52:00,72.8,70.0,29.66,WNW,302,3.0,21.0,92,0.00,,,0.08,weatherlink.com 1.10,2013-02-21 15:52:00,
2013-02-21 10:07:00,73.9,71.0,29.67,SSE,157,6.0,15.0,91,0.00,,,0.08,weatherlink.com 1.10,2013-02-21 16:07:00,
2013-02-21 10:22:00,74.2,71.0,29.68,SE,136,3.0,17.0,90,0.00,,,0.08,weatherlink.com 1.10,2013-02-21 16:22:00,
2013-02-21 10:37:00,74.3,71.0,29.69,SE,146,4.0,14.0,89,0.00,,,0.08,weatherlink.com 1.10,2013-02-21 16:37:00,
2013-02-21 10:52:00,74.0,71.0,29.69,East,82,6.0,12.0,89,0.00,,,0.08,weatherlink.com 1.10,2013-02-21 16:52:00,
2013-02-21 11:07:00,75.2,72.0,29.68,ESE,120,8.0,22.0,88,0.00,,,0.08,weatherlink.com 1.10,2013-02-21 17:07:00,
2013-02-21 11:22:00,76.1,72.0,29.68,South,180,4.0,18.0,87,0.00,,,0.08,weatherlink.com 1.10,2013-02-21 17:22:00,
2013-02-21 11:37:00,75.8,71.0,29.67,SSE,154,9.0,16.0,86,0.00,,,0.08,weatherlink.com 1.10,2013-02-21 17:37:00,
2013-02-21 11:52:00,75.5,71.0,29.67,South,172,8.0,17.0,87,0.00,,,0.08,weatherlink.com 1.10,2013-02-21 17:52:00,
2013-02-21 12:07:00,75.3,71.0,29.67,SSE,161,6.0,16.0,87,0.00,,,0.08,weatherlink.com 1.10,2013-02-21 18:07:00,
2013-02-21 12:22:00,75.3,72.0,29.66,SSE,159,3.0,13.0,88,0.00,,,0.08,weatherlink.com 1.10,2013-02-21 18:22:00,
2013-02-21 12:37:00,76.0,71.0,29.66,East,84,6.0,13.0,85,0.00,,,0.08,weatherlink.com 1.10,2013-02-21 18:37:00,
2013-02-21 12:52:00,76.1,71.0,29.66,South,181,4.0,11.0,83,0.00,,,0.08,weatherlink.com 1.10,2013-02-21 18:52:00,
2013-02-21 13:07:00,76.0,71.0,29.65,ESE,121,4.0,9.0,84,0.00,,,0.08,weatherlink.com 1.10,2013-02-21 19:07:00,
2013-02-21 13:22:00,76.1,71.0,29.65,NE,48,3.0,8.0,83,0.00,,,0.08,weatherlink.com 1.10,2013-02-21 19:22:00,
2013-02-21 13:38:00,76.6,71.0,29.64,SE,132,7.0,17.0,83,0.00,,,0.08,weatherlink.com 1.10,2013-02-21 19:38:00,
2013-02-21 13:53:00,77.2,71.0,29.64,SSW,192,8.0,12.0,82,0.00,,,0.08,weatherlink.com 1.10,2013-02-21 19:53:00,
2013-02-21 14:08:00,77.6,71.0,29.63,SE,142,4.0,11.0,80,0.00,,,0.08,weatherlink.com 1.10,2013-02-21 20:08:00,
2013-02-21 14:23:00,76.2,64.0,29.64,NW,317,5.0,9.0,66,0.00,,,0.08,weatherlink.com 1.10,2013-02-21 20:23:00,
2013-02-21 14:38:00,72.0,59.0,29.64,NW,316,3.0,10.0,63,0.00,,,0.08,weatherlink.com 1.10,2013-02-21 20:38:00,
2013-02-21 14:53:00,73.0,59.0,29.64,WNW,301,4.0,11.0,61,0.00,,,0.08,weatherlink.com 1.10,2013-02-21 20:53:00,
2013-02-21 15:08:00,73.2,58.0,29.65,NW,320,3.0,13.0,59,0.00,,,0.08,weatherlink.com 1.10,2013-02-21 21:08:00,
2013-02-21 15:23:00,73.5,58.0,29.65,NW,307,9.0,10.0,58,0.00,,,0.08,weatherlink.com 1.10,2013-02-21 21:23:00,
2013-02-21 15:38:00,73.5,56.0,29.66,NNW,332,5.0,13.0,55,0.00,,,0.08,weatherlink.com 1.10,2013-02-21 21:38:00,
2013-02-21 15:53:00,73.3,54.0,29.66,West,267,6.0,13.0,51,0.00,,,0.08,weatherlink.com 1.10,2013-02-21 21:53:00,
2013-02-21 16:08:00,73.4,53.0,29.66,NNW,333,9.0,12.0,49,0.00,,,0.08,weatherlink.com 1.10,2013-02-21 22:08:00,
2013-02-21 16:23:00,73.3,52.0,29.66,NW,317,5.0,12.0,47,0.00,,,0.08,weatherlink.com 1.10,2013-02-21 22:23:00,
2013-02-21 16:38:00,73.2,51.0,29.67,NW,307,7.0,9.0,46,0.00,,,0.08,weatherlink.com 1.10,2013-02-21 22:38:00,
2013-02-21 16:53:00,73.0,50.0,29.68,NW,311,2.0,13.0,45,0.00,,,0.08,weatherlink.com 1.10,2013-02-21 22:53:00,
2013-02-21 17:08:00,72.5,49.0,29.69,NNW,337,7.0,10.0,44,0.00,,,0.08,weatherlink.com 1.10,2013-02-21 23:08:00,
2013-02-21 17:23:00,72.1,48.0,29.69,NW,311,5.0,9.0,43,0.00,,,0.08,weatherlink.com 1.10,2013-02-21 23:23:00,
2013-02-21 17:38:00,71.8,49.0,29.70,NW,319,1.0,11.0,44,0.00,,,0.08,weatherlink.com 1.10,2013-02-21 23:38:00,
2013-02-21 17:53:00,71.5,48.0,29.70,NW,313,0.0,7.0,44,0.00,,,0.08,weatherlink.com 1.10,2013-02-21 23:53:00,
2013-02-21 18:08:00,71.2,48.0,29.71,NNW,330,3.0,5.0,44,0.00,,,0.08,weatherlink.com 1.10,2013-02-22 00:08:00,
2013-02-21 18:23:00,71.0,48.0,29.72,NNW,328,2.0,7.0,44,0.00,,,0.08,weatherlink.com 1.10,2013-02-22 00:23:00,
2013-02-21 18:38:00,70.5,47.0,29.73,NNW,327,0.0,4.0,44,0.00,,,0.08,weatherlink.com 1.10,2013-02-22 00:38:00,
2013-02-21 18:53:00,69.8,47.0,29.73,NNW,327,0.0,3.0,45,0.00,,,0.08,weatherlink.com 1.10,2013-02-22 00:53:00,
2013-02-21 19:08:00,69.2,47.0,29.74,NNW,327,0.0,1.0,46,0.00,,,0.08,weatherlink.com 1.10,2013-02-22 01:08:00,
2013-02-21 19:23:00,68.5,47.0,29.74,NNW,327,0.0,1.0,47,0.00,,,0.08,weatherlink.com 1.10,2013-02-22 01:23:00,
2013-02-21 19:38:00,68.1,48.0,29.75,NNW,327,0.0,0.0,48,0.00,,,0.08,weatherlink.com 1.10,2013-02-22 01:38:00,
2013-02-21 19:53:00,67.3,48.0,29.75,NNW,327,0.0,0.0,50,0.00,,,0.08,weatherlink.com 1.10,2013-02-22 01:53:00,
2013-02-21 20:08:00,66.4,49.0,29.76,NNW,327,0.0,0.0,54,0.00,,,0.08,weatherlink.com 1.10,2013-02-22 02:08:00,
2013-02-21 20:23:00,65.9,49.0,29.77,NNW,327,0.0,0.0,55,0.00,,,0.08,weatherlink.com 1.10,2013-02-22 02:23:00,
2013-02-21 20:38:00,65.1,49.0,29.77,NNW,327,0.0,0.0,57,0.00,,,0.08,weatherlink.com 1.10,2013-02-22 02:38:00,
2013-02-21 20:54:00,64.5,49.0,29.77,NNW,327,0.0,0.0,58,0.00,,,0.08,weatherlink.com 1.10,2013-02-22 02:54:00,
2013-02-21 21:08:00,63.6,48.0,29.78,NNW,327,0.0,1.0,58,0.00,,,0.08,weatherlink.com 1.10,2013-02-22 03:08:00,
2013-02-21 21:23:00,62.9,50.0,29.78,NNW,327,0.0,1.0,63,0.00,,,0.08,weatherlink.com 1.10,2013-02-22 03:23:00,
2013-02-21 21:38:00,61.8,49.0,29.78,NNW,327,0.0,0.0,64,0.00,,,0.08,weatherlink.com 1.10,2013-02-22 03:38:00,
2013-02-21 21:53:00,62.0,49.0,29.79,NNW,327,0.0,0.0,63,0.00,,,0.08,weatherlink.com 1.10,2013-02-22 03:53:00,
2013-02-21 22:24:00,60.5,50.0,29.80,NNW,327,0.0,0.0,69,0.00,,,0.08,weatherlink.com 1.10,2013-02-22 04:24:00,
2013-02-21 22:38:00,60.4,51.0,29.80,NNW,327,0.0,0.0,70,0.00,,,0.08,weatherlink.com 1.10,2013-02-22 04:38:00,
2013-02-21 22:53:00,60.7,50.0,29.80,NNW,327,0.0,0.0,69,0.00,,,0.08,weatherlink.com 1.10,2013-02-22 04:53:00,
2013-02-21 23:08:00,60.5,51.0,29.80,NNW,327,0.0,1.0,70,0.00,,,0.08,weatherlink.com 1.10,2013-02-22 05:08:00,
2013-02-21 23:24:00,61.1,50.0,29.80,NNW,327,0.0,3.0,68,0.00,,,0.08,weatherlink.com 1.10,2013-02-22 05:24:00,
2013-02-21 23:38:00,61.4,50.0,29.79,NNW,327,0.0,0.0,67,0.00,,,0.08,weatherlink.com 1.10,2013-02-22 05:38:00,
2013-02-21 23:54:00,60.9,50.0,29.80,NNW,327,0.0,0.0,67,0.00,,,0.08,weatherlink.com 1.10,2013-02-22 05:54:00,